Flag for Switzerland Weather past 2 weeks in Winterthur, Switzerland

Now
88 °F

Sunny.


Feels Like: 86 °F
Forecast: 54 / 82 °F
Wind: 2 mph from North

Location: Zurich-Kloten

Current Time: Aug 3, 2015 at 7:59:29 PM

Latest Report: Aug 3, 2015 at 7:20 PM


Visibility: 10 mi

Pressure: 30.01 "Hg

Humidity: 33%

Dew point: 55 °F

Location of WinterthurLocation

Historic Weather in Winterthur — Graph

°F

Winterthur temperature yesterday

Maximum temperature yesterday: 79 °F (at 3:20 PM)
Minimum temperature yesterday: 59 °F (at 4:50 AM)
Average temperature yesterday: 69 °F

Past Weeks' High & Low Weather Summary

 TemperatureHumidityPressure
High95 °F (Jul 22, 3:20 PM)100% (Jul 23, 9:20 AM)30.15 "Hg (Jul 23, 9:20 AM)
Low48 °F (Jul 31, 6:20 AM)28% (Jul 21, 5:50 PM)29.74 "Hg (Jul 24, 5:20 PM)
Average68 °F67%29.98 "Hg
* Reported Jul 19 6:20 PM — Aug 3 6:50 PM, Winterthur, Weather by CustomWeather, © 2015

Note: Actual official high and low records may vary slightly from our data, if they occured in-between our weather recording intervals... More about our weather records

Advertising

Winterthur weather history for previous 24 hours

 ConditionsComfort  
Time TempWeatherWind HumidityBarometerVisibility
6:50 PM
Mon, Aug 3
88 °FSunny.6 mph33%30.01 "Hg10 mi
6:20 PM88 °FSunny.3 mph31%30.04 "Hg10 mi
5:50 PM88 °FPassing clouds.5 mph33%30.04 "HgN/A
5:20 PM88 °FPassing clouds.5 mph31%30.04 "HgN/A
4:50 PM88 °FPassing clouds.3 mph31%30.04 "HgN/A
4:20 PM86 °FPassing clouds.8 mph33%30.04 "HgN/A
3:50 PM86 °FPassing clouds.12 mph33%30.07 "HgN/A
3:20 PM88 °FPassing clouds.10 mph31%30.07 "HgN/A
2:50 PM86 °FPassing clouds.9 mph33%30.07 "HgN/A
2:20 PM84 °FPassing clouds.8 mph35%30.07 "HgN/A
1:50 PM84 °FPassing clouds.5 mph37%30.07 "HgN/A
1:20 PM82 °FPassing clouds.9 mph42%30.09 "HgN/A
12:50 PM81 °FPassing clouds.6 mph45%30.09 "HgN/A
12:20 PM81 °FPassing clouds.6 mph48%30.09 "HgN/A
11:50 AM79 °FSunny.5 mph54%30.09 "Hg10 mi
11:20 AM77 °FSunny.6 mph57%30.09 "Hg10 mi
10:50 AM77 °FSunny.3 mph61%30.12 "Hg10 mi
10:20 AM73 °FSunny.3 mph65%30.12 "Hg10 mi
9:50 AM72 °FPassing clouds.5 mph69%30.12 "HgN/A
9:20 AM70 °FSunny.3 mph73%30.12 "Hg10 mi
8:50 AM68 °FSunny.2 mph73%30.12 "Hg10 mi
8:20 AM64 °FSunny.2 mph78%30.12 "Hg10 mi
7:50 AM61 °FSunny.1 mph88%30.09 "Hg10 mi
7:20 AM57 °FSunny.2 mph100%30.09 "Hg10 mi
6:50 AM55 °FFog.1 mph100%30.09 "HgN/A
6:20 AM54 °FFog.No wind100%30.09 "HgN/A
5:50 AM54 °FFog.No wind100%30.09 "HgN/A
5:20 AM54 °FFog.No wind94%30.07 "HgN/A
4:50 AM55 °FFog.No wind94%30.07 "HgN/A
4:20 AM55 °FClear.2 mph94%30.07 "Hg10 mi
3:50 AM57 °FClear.2 mph94%30.07 "Hg10 mi
3:20 AM55 °FClear.No wind94%30.07 "Hg10 mi
2:50 AM57 °FClear.1 mph94%30.07 "Hg10 mi
1:50 AM57 °FPassing clouds.3 mph94%30.07 "HgN/A
1:20 AM59 °FClear.3 mph88%30.07 "Hg10 mi
12:50 AM59 °FClear.3 mph88%30.09 "Hg10 mi
12:20 AM61 °FClear.2 mph83%30.09 "Hg10 mi
11:20 PM
Sun, Aug 2
63 °FClear.2 mph77%30.09 "Hg10 mi
10:50 PM64 °FClear.3 mph73%30.07 "Hg10 mi
10:20 PM66 °FPassing clouds.3 mph68%30.07 "HgN/A
9:50 PM70 °FPassing clouds.3 mph60%30.07 "HgN/A
9:20 PM73 °FPassing clouds.5 mph53%30.07 "HgN/A
8:50 PM73 °FSunny.6 mph53%30.07 "Hg10 mi
8:20 PM75 °FSunny.7 mph47%30.07 "Hg10 mi
7:50 PM77 °FPassing clouds.9 mph44%30.07 "HgN/A
7:20 PM77 °FPassing clouds.8 mph47%30.07 "HgN/A
Weather by CustomWeather, © 2015

See weather overviewHow to use our weather pages